Location: Carnoy
(49.9849°N, 2.7558°E)
Time: 00:30:15
(UTC+00:00)

Cosmos 1953 Rocket - Pass Details

Date: 24 January 2020
Orbit: 603 x 636 km, 82.5° (Epoch: 23 February)

Event Time Altitude Azimuth Distance (km) Brightness Sun altitude
Rises 18:08:22 0° 185° (S) 2,922 7.2 -15.7°
Reaches altitude 10° 18:10:35 10° 185° (S) 2,019 6.4 -16.1°
Maximum altitude 18:15:05 82° 98° (E) 650 3.5 -16.8°
Drops below altitude 10° 18:19:36 10° 12° (NNE) 2,032 6.0 -17.5°
Enters shadow 18:21:35 - 11° (NNE) 2,836 6.8 -17.8°
